Change the Weather History Date:

Friday, February 3, 2012

  Actual Average Record
Temperature  
Mean Temperature 31 °F -  
Max Temperature 36 °F 26 °F 39 °F (2005)
Min Temperature 26 °F 14 °F -6 °F (2007)
Degree Days  
Heating Degree Days 34    
Moisture  
Dew Point 27 °F    
Average Humidity 82    
Maximum Humidity 92    
Minimum Humidity 70    
Precipitation  
Precipitation 0.00 in - - ()
Sea Level Pressure  
Sea Level Pressure 30.44 in    
Wind  
Wind Speed 7 mph (NNW)    
Max Wind Speed 15 mph    
Max Gust Speed -    
Averages and records for this station are not official NWS values.
T = Trace of Precipitation, MM = Missing Value Source: NWS Daily Summary

Daily Weather History Graph

Daily Weather History Graph

Search for Another Location

Airport or City:

Trip Planner

Search our weather history database for the weather conditions in past years. The results will help you decide how hot, cold, wet, or windy it might be!

Date:

Astronomy

Feb. 03, 2012 Rise Set
Actual Time 8:15 AM EST 5:55 PM EST
Civil Twilight 7:42 AM EST 6:28 PM EST
Nautical Twilight 7:06 AM EST 7:05 PM EST
Astronomical Twilight 6:30 AM EST 7:40 PM EST
Moon 1:47 PM EST (2/3) 5:00 AM EST (2/3)
Length of Visible Light 10h 45m
Length of Day
9h 39m
Waxing Gibbous, 81% of the Moon is Illuminated
Feb 3
Waxing Gibbous
Feb 7
Full
Feb 14
Last Quarter
Feb 21
New
Feb 29
First Quarter

Hourly Weather History & Observations

Time (EST) Temp. Windchill Dew Point Humidity Pressure Visibility Wind Dir Wind Speed Gust Speed Precip Events Conditions
12:51 AM 34.0 °F 28.8 °F 28.9 °F 82% 30.38 in - Variable 5.8 mph - N/A   Unknown
1:51 AM 35.1 °F 30.1 °F 28.9 °F 78% 30.38 in - NNW 5.8 mph - N/A   Unknown
2:51 AM 36.0 °F 27.1 °F 30.0 °F 79% 30.40 in - North 13.8 mph - N/A   Unknown
3:51 AM 35.1 °F 25.5 °F 28.0 °F 76% 30.42 in - North 15.0 mph - N/A   Unknown
4:51 AM 35.1 °F 28.6 °F 26.1 °F 70% 30.43 in - North 8.1 mph - N/A   Unknown
5:51 AM 34.0 °F 31.0 °F 25.0 °F 70% 30.43 in - WNW 3.5 mph - N/A   Unknown
6:51 AM 34.0 °F 31.0 °F 27.0 °F 75% 30.43 in - WNW 3.5 mph - N/A   Unknown
7:51 AM 35.1 °F 30.1 °F 28.0 °F 76% 30.46 in - NNW 5.8 mph - N/A   Unknown
8:51 AM 34.0 °F 26.0 °F 28.9 °F 82% 30.48 in - North 10.4 mph - N/A   Unknown
9:51 AM 35.1 °F 27.9 °F 30.0 °F 82% 30.49 in - North 9.2 mph - N/A   Unknown
10:51 AM 35.1 °F 26.4 °F 28.9 °F 78% 30.48 in - North 12.7 mph - N/A   Unknown
11:51 AM 32.0 °F 21.6 °F 28.0 °F 85% 30.51 in - ENE 15.0 mph - N/A   Unknown
12:51 PM 30.9 °F 24.3 °F 27.0 °F 85% 30.49 in - ENE 6.9 mph - N/A   Unknown
1:51 PM 32.0 °F - 27.0 °F 82% 30.48 in - Calm Calm - N/A   Unknown
2:51 PM 32.0 °F 27.5 °F 27.0 °F 82% 30.46 in - North 4.6 mph - N/A   Unknown
3:51 PM 32.0 °F - 27.0 °F 82% 30.46 in - Calm Calm - N/A   Unknown
4:51 PM 32.0 °F 27.5 °F 28.0 °F 85% 30.45 in - North 4.6 mph - N/A   Unknown
5:51 PM 30.0 °F - 26.1 °F 85% 30.46 in - Calm Calm - N/A   Unknown
6:51 PM 28.0 °F 22.8 °F 25.0 °F 88% 30.47 in - WSW 4.6 mph - N/A   Unknown
7:51 PM 28.9 °F 25.2 °F 25.0 °F 85% 30.45 in - Variable 3.5 mph - N/A   Unknown
8:51 PM 28.0 °F - 24.1 °F 85% 30.43 in - Calm Calm - N/A   Unknown
9:51 PM 26.1 °F - 23.0 °F 88% 30.41 in - Calm Calm - N/A   Unknown
10:51 PM 30.9 °F 27.5 °F 28.0 °F 89% 30.40 in - WNW 3.5 mph - N/A   Unknown
11:51 PM 28.9 °F - 27.0 °F 92% 30.39 in - Calm Calm - N/A   Unknown